Regional Weather Roundup
Issued by NWS Boston, MA

Current Version | Previous Version | Text Only | Print | Product List | Glossary Off
Versions: 1 2 3 4 5 6 7 8 9 10 11 12 13 14 15 16 17 18 19 20 21 22 23 24 25 26 27
000 ASUS41 KBOX 232310 RWRBOX REGIONAL WEATHER ROUNDUP NATIONAL WEATHER SERVICE TAUNTON MA 700 PM EDT SUN JUL 23 2017 NOTE: "FAIR" INDICATES FEW OR NO CLOUDS BELOW 12,000 FEET WITH NO SIGNIFICANT WEATHER AND/OR OBSTRUCTIONS TO VISIBILITY. MAZALL-240000- EASTERN MASSACHUSETTS CITY SKY/WX TMP DP RH WIND PRES REMARKS BOSTON PTSUNNY 66 53 63 E10 29.91S BEVERLY FAIR 66 52 60 SE8 29.91R LAWRENCE FAIR 72 54 53 MISG 29.92S BEDFORD FAIR 69 44 40 SE8 29.89S BLUE HILL N/A 66 53 63 E9 29.91R NORWOOD CLOUDY 70 56 61 E8 29.89S MARSHFIELD FAIR 68 57 68 NE5 29.91R PLYMOUTH FAIR 67 54 63 NE7 29.91R TAUNTON FAIR 69 52 54 VRB5 29.89S NEW BEDFORD FAIR 69 53 56 NE9 29.88S $$ MAZALL-240000- CAPE COD AND THE ISLANDS CITY SKY/WX TMP DP RH WIND PRES REMARKS FALMOUTH FAIR 66 55 68 MISG 29.91R HYANNIS FAIR 68 56 65 NE7 29.89R CHATHAM FAIR 68 57 68 NE8 29.91R PROVINCETOWN FAIR 67 56 67 E8 29.92R NANTUCKET FAIR 67 58 72 NE14 29.89R MARTHAS VNYRD FAIR 71 57 61 E10 29.89R $$ MAZALL-240000- CENTRAL AND WESTERN MASSACHUSETTS CITY SKY/WX TMP DP RH WIND PRES REMARKS WORCESTER FAIR 69 48 47 E7 29.91R FITCHBURG FAIR 73 49 42 SE9 29.90S ORANGE PTSUNNY 73 57 57 E8 29.88R SPRINGFIELD PTSUNNY 77 57 48 E3 29.84S WESTFIELD FAIR 78 62 57 S3 29.85R NORTH ADAMS CLOUDY 73 60 63 E6 29.85S PITTSFIELD FAIR 73 59 61 E7 29.86S $$ RIZALL-240000- RHODE ISLAND CITY SKY/WX TMP DP RH WIND PRES REMARKS PROVIDENCE FAIR 72 53 51 E9 29.89R NEWPORT FAIR 71 56 58 E6 29.88R BLOCK ISLAND PTSUNNY 69 62 78 E7 29.90R WESTERLY CLOUDY 72 57 59 E8 29.89R $$ CTZALL-240000- CONNECTICUT CITY SKY/WX TMP DP RH WIND PRES REMARKS BRADLEY INTL PTSUNNY 78 60 53 SE10 29.85R HARTFORD FAIR 78 60 53 S9 29.84R BRIDGEPORT CLOUDY 74 64 71 E13 29.85F DANBURY CLOUDY 72 63 73 SE9 29.87R GROTON CLOUDY 71 58 63 E14 29.87R NEW HAVEN CLOUDY 74 62 66 SE10 29.86S CHESTER FAIR 72 61 68 SE8 29.88R MERIDEN CLOUDY 74 62 66 S12 29.86R WILLIMANTIC FAIR 77 56 48 SE6 29.87R OXFORD CLOUDY 70 57 64 S9 29.87R $$ MEZ002-015-021-024-NHZ003-005-008-011-012-014-VTZ005-008-240000- NORTHERN NEW ENGLAND CITY SKY/WX TMP DP RH WIND PRES REMARKS PORTLAND ME FAIR 67 47 48 S8 29.90R BANGOR ME PTSUNNY 72 48 42 CALM 29.89R CONCORD NH FAIR 72 54 53 S8 29.89R MANCHESTER NH PTSUNNY 72 51 47 SE10 29.88R NASHUA NH PTSUNNY 73 53 49 SE9 29.90R PORTSMOUTH NH PTSUNNY 66 49 54 SE9 29.89S JAFFREY NH FAIR 71 58 63 VRB3 29.91R KEENE NH FAIR 75 59 57 S7 29.88R BURLINGTON VT PTSUNNY 75 52 44 N10 29.87R MT. WASHINGTON MOSUNNY 50 45 81 W13 N/A $$ NYZ052-076-240000- EASTERN NEW YORK CITY SKY/WX TMP DP RH WIND PRES REMARKS ALBANY PTSUNNY 76 64 66 NE5 29.82S NEW YORK CITY PTSUNNY 78 67 68 SE10 29.83R $$ ANZALL-240000- MARINE OBSERVATIONS STATION/POSITION TIME TEMP WIND PRES VSBY WAVE AIR SEA DIR/SP/G HT/PER (UTC) (F) (DEG/KT/KT) (MB) (MI) (FT/S) BOSTON BUOY 2150 66 67 70/ 8/ 10 1012.4 3/ 6 BUZZARDS BAY 2200 68 40/ 15/ 16 1011.8R NANTUCKET SOUND 2150 69 1011.4 1/ 3 MASS BAY-STELLWA 2204 66 65 80/ 6/ 6 1012.4R 3/ 5 ISLE OF SHOALS 2200 65 140/ 8/ 8 1012.3R S OF BLOCK IS 2255 74 N/A 4/ 7 $$ ......................KEY......................... SKY/WX - SKY CONDITION/PRESENT WEATHER TMP - TEMPERATURE IN FAHRENHEIT DWPT - DEWPOINT IN FAHRENHEIT RH - RELATIVE HUMIDITY IN PERCENT WIND - DIRECTION AND SPEED IN MPH PRES - MEAN SEA LEVEL PRESSURE IN INCHES OF HG WCI - WIND CHILL INDEX VSB - VISIBILITY IN MILES HX - HEAT INDEX TC - TEMPERATURE IN CELSIUS VRB - VARIABLE WIND DIRECTION N/A - NOT AVAILABLE

USA.gov is the U.S. government's official web portal to all federal, state and local government web resources and services.